Location: Newark
(25.0000°N, 73.5000°E)
Time: 03:40:27
(UTC+00:00)

Altair - Pass Details

Date: 04 March 2021
Orbit: 1501 x 1683 km, 47.2° (Epoch: 12 April)

Event Time Altitude Azimuth Distance (km) Brightness Sun altitude
Rises 16:39:22 0° 306° (NW) 4,670 10.7 -47.7°
Reaches altitude 10° 16:43:50 10° 325° (NW) 3,714 9.9 -48.7°
Enters shadow 16:48:28 18° 355° (N) 3,178 9.2 -49.7°
Maximum altitude 16:49:50 18° 5° (N) 3,154 - -50.0°
Drops below altitude 10° 16:55:59 10° 46° (NE) 3,804 - -51.2°
Sets 17:00:37 0° 64° (ENE) 4,826 - -52.2°
